Regional Weather Roundup
Issued by NWS

Home | Current Version | Previous Version | Graphics & Text | Print | Product List | Glossary On
Versions: 1 2 3 4 5 6 7 8 9 10 11 12 13 14 15 16 17 18 19 20 21 22 23 24 25 26 27 28 29 30 31 32 33 34 35 36 37 38 39 40 41 42 43 44 45 46 47 48 49 50
000
ASUS44 KMEG 110910
RWRTN
TENNESSEE HOURLY STATE WEATHER ROUNDUP
NATIONAL WEATHER SERVICE MEMPHIS TN
300 AM CST SUN DEC 11 2016

TNZ002-004-019-021-049-052-054-088>092-111000-
WEST TENNESSEE

CITY           SKY/WX    TMP DP  RH WIND       PRES   REMARKS
MEMPHIS INTL   CLOUDY    41  17  38 S15G22    30.22F
NWS MEMPHIS      N/A     39 N/A N/A MISG        N/A
JACKSON        CLOUDY    37  17  44 S9        30.29R WCI  30
DYERSBURG      CLOUDY    39  18  41 S8G16     30.24F WCI  34
UNION CITY     CLOUDY    37  19  48 SE9       30.24F WCI  31
PARIS          CLOUDY    34  16  47 S6        30.27S WCI  29
HUNTINGDON     CLOUDY    37  18  44 S9        30.27S WCI  31
LEXINGTON      CLEAR     32  16  51 SE3       30.28S
$$

TNZ008-025-027-028-033-062-065-066-111000-
NORTH MIDDLE TENNESSEE

CITY           SKY/WX    TMP DP  RH WIND       PRES   REMARKS
NASHVILLE      CLOUDY    28  17  63 SE7       30.32F WCI  21
PORTLAND       MOCLDY    32  18  55 S12       30.29F WCI  23
CLARKSVILLE    CLOUDY    34  16  47 S5        30.30R WCI  30
SMYRNA         CLOUDY    23  19  85 SE6       30.33F WCI  16
GALLATIN       CLEAR     23  19  86 N5        30.36R WCI  17
CROSSVILLE     CLOUDY    29  13  51 S6        30.32S WCI  23
$$

TNZ061-075-076-078-094-096-097-111000-
SOUTH MIDDLE TENNESSEE

CITY           SKY/WX    TMP DP  RH WIND       PRES   REMARKS
FAYETTEVILLE   PTCLDY    32  16  51 S8        30.32F WCI  25
TULLAHOMA      CLEAR     28  14  54 S6        30.32S WCI  22
WINCHESTER     CLEAR     25  16  68 SE3       30.33F
MCMINNVILLE    CLEAR     21  18  86 CALM        N/A
COLUMBIA       CLEAR     21  21 100 CALM      30.28F
SHELBYVILLE    CLEAR     27  19  74 E5        30.33S WCI  21
$$

TNZ017-018-042-046-047-111000-
NORTHEAST TENNESSEE

CITY           SKY/WX    TMP DP  RH WIND       PRES   REMARKS
TRI CITIES     CLOUDY    22  17  81 CALM      30.35F
ELIZABETHTON   CLOUDY    28  16  59 NE6       30.35F WCI  22
$$

TNZ012-013-036-069-073-074-111000-
CENTRAL EAST TENNESSEE

CITY           SKY/WX    TMP DP  RH WIND       PRES   REMARKS
KNOXVILLE      CLOUDY    24  17  74 CALM      30.36F
OAK RIDGE      CLEAR     23  19  85 CALM      30.39F
DOWNTOWN KNOXV CLEAR     25  23  93 CALM      30.39F
GATLINBURG     CLEAR     19  16  86 CALM      30.37F
MORRISTOWN     CLEAR     25  18  74 CALM      30.35F
JACKSBORO      CLEAR     21  19  93 CALM      30.39F
$$

TNZ083-085-099-111000-
SOUTHEAST TENNESSEE

CITY           SKY/WX    TMP DP  RH WIND       PRES   REMARKS
CHATTANOOGA    CLOUDY    26  20  77 CALM      30.39F
$$

SKY/WX REPORTED AS FAIR MEANS FEW OR NO CLOUDS BELOW
12 THOUSAND FEET.





USA.gov is the U.S. government's official web portal to all federal, state and local government web resources and services.